DECAYED

CZ-6A DEB, 60821 (Decayed)

Orbit data source: Space-Track

CZ-6A DEB, 60821 was space debris in LEO originally from a launch on Tue, 06 Aug 2024 UTC launched from the Taiyaun Space Center, China (TSC). Debris objects in space refer to the collection of defunct objects orbiting the Earth. Examples of debris include non-operational satellites, rocket bodies, and fragments generated from explosions, collisions, or faulty payload assembly.

Loading next visibility...
Identifier
60821, 2024-140GY
Orbit
Decayed
Country
Flag of CNCN / PRC
Related business
Manufacturer
SAST
Mission
Decayed spacecraft
Bus & Motor
Unknown
Mass
Unknown
Launch date (UTC)
2024-08-06 (2 years ago)
Launch vehicle
Unknown
Launch site
Taiyaun Space Center, China (TSC)
Object type
Payload
Rocket body
Debris
Shape & HBR
Unknown shape, 0.1 m
Radar Cross Section
Medium (>0.1 m² and <1 m²)

Expand to show TLE details & history
Last TLE update: 1 year ago

TLE from 1 year ago
0 CZ-6A DEB
1 60821U 24140GY  25105.67551976  .12278225  00000-0  46455-1 0  9991
2 60821  88.9994 320.4508 0013282 254.4991 105.4822 15.82791441 35875
Epoch: 2025-04-15T16:12Z
TLE epoch observation values (Epoch: 2025-04-15T16:12:44.907Z)
Latitude
-0.00002°
Longitude
-126.80903°
Altitude
328.22 km
Speed
7.71 km/s
True Right ascension
21h 21m 48s
True Declination
0° 00' 00"
Sunlit
Object was in daylight at epoch
Visualization orbit readout
Latitude
Unknown
Longitude
Unknown
Altitude
Unknown
Speed
Unknown
Apparent Right ascension
Unknown
Apparent Declination
Unknown
Sunlit
N/A
Visualization observer readout
Local Sidereal Time
07:24:26
Azimuth
Unknown
Elevation
Unknown
Doppler factor
Unknown
Orbital elements
Apogee altitude
328.168 km
Perigee altitude
310.377 km
Semi-major axis
6,697.41 km
Eccentricity
0.00133
Inclination
88.9994°
RAAN
320.4508°
Arg. of periapsis
254.4991°
True anomaly
105.62881°
Mean anomaly
105.4822°
Eccentric anomaly
105.55551°
Mean motion
3.95989 °/min
Orbital period
90.91 mins
BSTAR
0.046455
Loading maneuver chart data...
Computing Atmospheric mass density...
Loading historical data...
Loading historical data...
Loading historical data...
Loading historical data...
Loading historical data...
Loading historical data...
Loading historical data...

Documentation

Showing up to 5 results
|